Location: Cardiff
(53.7833°N, 113.6000°W)
Time: 19:08:37
(UTC+00:00)

NOAA 15 - Pass Details

Date: 07 December 2023
Orbit: 796 x 810 km, 98.6° (Epoch: 21 February)

Event Time Altitude Azimuth Distance (km) Brightness Sun altitude
Rises 01:47:34 0° 153° (SSE) 3,319 7.6 -21.2°
Reaches altitude 10° 01:49:55 10° 151° (SSE) 2,390 6.9 -21.6°
Maximum altitude 01:55:10 68° 69° (ENE) 870 4.5 -22.3°
Drops below altitude 10° 02:00:26 10° 348° (NNW) 2,399 7.1 -23.1°
Sets 02:02:46 0° 346° (NNW) 3,332 7.9 -23.4°
